Regional Weather Roundup
Issued by NWS

Home | Current Version | Previous Version | Graphics & Text | Print | Product List | Glossary On
Versions: 1 2 3 4 5 6 7 8 9 10 11 12 13 14 15 16 17 18 19 20 21 22 23 24 25 26 27 28 29 30 31 32 33 34 35 36 37 38 39 40 41 42 43 44 45 46 47 48 49 50
689
ASUS45 KBOU 211610
RWRCO

WEATHER ROUNDUP FOR COLORADO
NATIONAL WEATHER SERVICE DENVER/BOULDER CO
1000 AM MDT MON MAY 21 2018

NOTE: "FAIR" INDICATES FEW OR NO CLOUDS BELOW 12000 FEET WITH NO
SIGNIFICANT WEATHER AND/OR OBSTRUCTIONS TO VISIBILITY.

COZ001>005-013-030-031-211700-
...NORTHWEST COLORADO...

CITY           SKY/WX    TMP DP  RH WIND       PRES   REMARKS
CRAIG          FAIR      64  39  39 E8        30.06F
HAYDEN         FAIR      60  39  45 E6        30.09F
MEEKER         FAIR      58  41  53 CALM      30.06S
RANGELY        FAIR      59  37  44 CALM      30.03S
RABBIT EARS PA FAIR      46  32  57 CALM      30.29S
STEAMBOAT SPGS FAIR      55  40  57 CALM      30.09F
WALDEN         FAIR      54  37  54 E5        30.18S
$$

COZ006>008-011-211700-
...WEST CENTRAL VALLEYS...

CITY           SKY/WX    TMP DP  RH WIND       PRES   REMARKS
GRAND JUNCTION FAIR      67  37  33 SE10      29.98F
MONTROSE       FAIR      67  34  29 N12       30.04F
EAGLE          FAIR      55  33  43 CALM      30.14F
RIFLE          FAIR      61  36  39 CALM      30.03F
DELTA          FAIR      69  32  25 E3        30.02F
NUCLA          FAIR      66  28  24 N3        30.07F
$$

COZ017>023-064>068-211700-
...SOUTHWEST COLORADO...

CITY           SKY/WX    TMP DP  RH WIND       PRES   REMARKS
DURANGO        FAIR      64  40  41 SE9       30.13F
CORTEZ         FAIR      72  29  20 SE14G22   30.05F
PAGOSA SPRINGS FAIR      61  38  41 SE6       30.21F
TELLURIDE      FAIR      59  22  23 SE12G17   30.23F
WOLF CREEK PAS CLOUDY    37  34  87 SW13G22   30.46R
$$

COZ009-010-012-014-032>034-037-058>063-211700-
...CENTRAL COLORADO...

CITY           SKY/WX    TMP DP  RH WIND       PRES   REMARKS
ASPEN          FAIR      62  34  35 NW6       30.13F
BUENA VISTA    FAIR      53  36  52 CALM      30.23F
COPPER MTN     FAIR      45  21  39 SW14      30.40R
BERTHOUD PASS  FAIR      39  30  70 W14G20    30.41S
COTTONWOOD PAS FAIR      54  39  58 CALM      30.31S
GUNNISON       FAIR      56  34  43 NE7       30.20F
GRANBY         FAIR      50  35  55 CALM      30.20F
KREMMLING      FAIR      59  36  41 E5        30.17F
LEADVILLE      FAIR      47  33  58 S6        30.27F
MONARCH PASS   FAIR      41  32  70 MISG      30.51R
SALIDA         FAIR      56  38  52 CALM      30.29S
SUNLIGHT       FAIR      46  23  39 SW6G20    30.33S
WILKERSON PASS FAIR      39  34  81 SW12G18   30.40R
$$

COZ069>075-211700-
...SAN LUIS VALLEY/SANGRE DE CRISTO MOUNTAINS...

CITY           SKY/WX    TMP DP  RH WIND       PRES   REMARKS
ALAMOSA        FAIR      56  42  59 SE5       30.23F
DEL NORTE      FAIR      55  35  47 CALM      30.25F
LA VETA PASS   FAIR      46  37  71 SW9G18    30.46F
SAGUACHE       NOT AVBL
$$

COZ035-036-038>040-211700-
...NORTHERN COLORADO FRONT RANGE...

CITY           SKY/WX    TMP DP  RH WIND       PRES   REMARKS
DENVER INTL AP FAIR      61  45  55 SW7       30.03F
AURORA         PTSUNNY   65  47  51 NW3       30.04F
FRONT RANGE AP NOT AVBL
ERIE MUNI ARPT FAIR      59  46  62 CALM      30.08F
BOULDER MUN AP FAIR      57  48  72 CALM      30.03S
CENTENNIAL     PTSUNNY   68  41  37 SW12      30.04F
BROOMFIELD     MOSUNNY   59  48  67 CALM      30.05S
FORT COLLINS   FAIR      58  48  69 CALM      30.04S
LONGMONT       FAIR      63  49  59 CALM      30.05S
$$

COZ041-046-047-076>085-087-088-211700-
...PIKES PEAK/PALMER DIVIDE AND SOUTHERN FOOTHILLS...

CITY           SKY/WX    TMP DP  RH WIND       PRES   REMARKS
COLO. SPRINGS  PTSUNNY   64  43  46 S3        30.10S
A. F. ACADEMY  FAIR      61  43  51 CALM      30.10S
SCHRIEVER AFB  NOT AVBL
CHEYENNE MTN   FAIR      60  43  53 CALM      30.07S
ELLICOTT         N/A    N/A N/A N/A SW15      30.07F
FALCON         FAIR      65  35  32 SW12G20   30.13F
FORT CARSON    PTSUNNY   63  46  52 CALM      30.07S
LIMON          FAIR      70  47  43 S12G17    30.04F
MONUMENT HILL  FAIR      63  37  39 SW13      30.13F
CANON CITY     FAIR      68  45  42 W18       30.06F
WALSENBURG     FAIR      70  45  40 W21G26    30.11S
TRINIDAD       FAIR      66  52  60 W12G17    30.12F
$$

COZ042>045-048>051-090-091-211700-
...NORTHEAST COLORADO...

CITY           SKY/WX    TMP DP  RH WIND       PRES   REMARKS
GREELEY ARPT   FAIR      56  49  77 CALM      30.04S
AKRON          FAIR      58  51  78 S8        30.02F
BURLINGTON     FAIR      64  53  67 S18G29    30.04F
WRAY           CLOUDY    59  52  77 S10       30.05F
YUMA           FAIR      55  43  62 S12       30.03S
STERLING       FAIR      61  52  72 S6        30.01S
HOLYOKE        CLOUDY    55  52  88 S15       30.05S
FORT MORGAN    FAIR      58  47  67 W6        30.03F
$$

COZ086-089-092>099-211700-
...SOUTHEAST COLORADO...

CITY           SKY/WX    TMP DP  RH WIND       PRES   REMARKS
PUEBLO         FAIR      66  45  46 W7        30.04F
LA JUNTA       FAIR      72  50  45 SW7G16    30.03F
LAMAR          FAIR      74  51  44 MISG      30.01F
SPRINGFIELD      N/A     70  50  49 S24G32    30.09F
$$




USA.gov is the U.S. government's official web portal to all federal, state and local government web resources and services.